Zurück zum Katalog

STARLINK-36399

AktivKommunikationSSO
NORAD 67665·PAYLOAD·🇺🇸 United States

Gestartet Feb 2, 2026 von Vandenberg Space Force Base

Loading…

Nächste Überflüge (nächste 24 Stunden)

TLE

AktuellSource: CelesTrak SupGP

Epoche: Sep 15, 2026, 02:35 UTC

1 67665C 26022T   26258.10812500  .00014627  00000+0  45428-3 0  2585
2 67665  97.2837 289.6881 0001093 106.9622   5.2809 15.33416072    16

Verfolge STARLINK-36399 in Echtzeit mit AllMySat

Download on the App Store